Starlink 31684

operational
NORAD ID: 59492 Int'l Des: 2024-071 Owner: SPXS Country: US Constellation: starlink
LEOCIRCULAR

关于 Starlink 31684

正在加载描述...

实时位置

正在加载3D地球...

即将过境

高度历史

Altitude vs Time

uPlot chart will show altitude changes over time

两行轨道根数

1 59492U 24071J 25259.27816428 .00001181 00000-0 52425-4 0 9997
2 59492 43.0003 252.3388 0000920 266.1945 93.8802 15.27587728 81445
Epoch: Sep 16, 2025 • Age: 8 hours

当前状态

高度 486.8 km
速度 7.63 km/s
星下点 43.13°N, 118.51°E
发射日期 Apr 13, 2024
运行时间 1.4 years
类型 internet

技术详情

分类 Payload
质量 730.00 kg
干质量 700.00 kg
总质量 730.00 kg
长度 0.30 m
直径 4.10 m
跨度 29.00 m
形状 Box + pan
制造商 SPXS
平台类型 Starlink V2M
阶段状态 In Orbit
所有者/国家 SPXS/US

大型星座

Loading constellations...